CZ-6A DEB

Satellite information

Favourite Embed

Satellite Type and Status

DEBRISIN ORBIT

Key statistics

Satellite CZ-6A DEB at a glance.

Uptime

1073

Days in orbit

Revolutions

≈ 14.1

Per day

Orbit

SSO

Sun Synchronous Orbit

Inclination

98.8

Latest

Satellite identification and parameters

Extended collection of information and parameters for CZ-6A DEB.

Object identification

Identified? True

Debris? True

Object name: CZ-6A DEB

International designator: 2022-151AHK

Object number (NORAD): 56683

Object ID (CCSDS): 56683

Country: PEOPLES REPUBLIC OF CHINA (PRC)

Current information (Y/N): Y

RCS size: SMALL

Orbital parameters

Period: 102.144 minutes

Inclination: 98.8326 deg

SMA: 7238.272 km

Apoapsis: 891.402 km

Periapsis: 828.872 km

RAAN: 287.6662 deg

Eccentricy: 0.0043194

Argument of periapsis: 292.4731 deg

Mean anomaly: 67.1868 deg

Mean motion: 14.09776965 rev/day

Mean motion (dot): 0.00000325 rev/day2

B* drag term: 0.00020838 1/REarth

Two-line elements (TLE)

Creation date: Oct. 16, 2025, 7:16 a.m.

Reference frame: TEME

Reference center: EARTH

Epoch: Oct. 15, 2025, 10:32 p.m. UTC

TLE line 0: 0 CZ-6A DEB

TLE line 1: 1 56683U 22151AHK 25288.93925992 .00000325 00000-0 20838-3 0 9996

TLE line 2: 2 56683 98.8326 287.6662 0043194 292.4731 67.1868 14.09776965125549

Live tracking on map

Real-time ground track for satellite CZ-6A DEB.

In-orbit conjunctions

A list of the most updated potential collisions computed for object CZ-6A DEB.

Target Orbit TCA Probability of collision Miss distance Type
FENGYUN 1C DEB SSO 2025-08-04 02:27:03 0.0007221083 67.0 (m) DEBRIS
FENGYUN 1C DEB SSO 2024-07-13 15:24:01 0.0001494755 137.0 (m) DEBRIS

Associated space launch

Chinese satellite reported for atmospheric/ocean/environmental/spatial parameter research purposes, details TBD.

CZ-6A DEB was lifted into orbit during the mission ‘Long March 6A | Yunhai 3’, on board a Long March 6A space rocket.

The launch took place on Nov. 11, 2022, 10:52 p.m. from Launch Complex 9A.

For more information about the launch, click the button.

Launch to space Long March 6A | Yunhai 3
Long March 6A | Yunhai 3

Agency: N/A

Status: Launch Successful

Launch date: Nov. 11, 2022, 10:52 p.m. UTC

Rocket: Long March 6A

Launch pad: Launch Complex 9A

Location: Taiyuan Satellite Launch Center, People's Republic of China

...

Latest news about this satellite

There are no fresh news available about this satellite. Check back as we update our databases every day.


Newsletter sign-up

Weekly statistics, charts and insights to help you stay on top of the space industry.